Welcome to the New NWS' Forecast!
Most changes are behind the scenes, but click here for differences you might notice.
Latest weather observations around

West Memphis, West Memphis Municipal Airport (KAWM)

Using English Units (Switch to International System of Units)
Date/ Time (CDT) Wind (mph) Vis. (mi) Weather Sky Cond. Temp (°F) Rel. Humidity Wind Chill (°F) Heat Index (°F) Pressure Precip. (in)
Air Dwpt 6 hour Altimeter (inHg) Sea level (inHg) 1 hr 3 hr 6 hr
Max Min
Jun 25 00:53 NE 6 10 Cloudy SCT100 OVC120 68 65     90%     30.17 30.15      
Jun 24 23:53 N 5 10 Clear CLR 70 63     78%     30.17 30.15      
Jun 24 22:53 N 5 10 Clear CLR 70 64     81%     30.15 30.14      
Jun 24 21:53 Calm 10 Clear CLR 70 70     100%     30.14 30.13      
Jun 24 20:53 NNW 3 10 Clear CLR 71 66     84%   72 30.12 30.11      
Jun 24 19:53 N 3 10 Clear CLR 74 63     69%   74 30.12 30.1      
Jun 24 18:53 N 6 10 Clear CLR 78 62     58%   78 30.1 30.09      
Jun 24 17:53 N 10 10 Clear CLR 80 62     54%   81 30.08 30.07      
Jun 24 16:53 11 10 Mostly Clear FEW040 79 63     58%   79 30.08 30.06      
Jun 24 15:53 N 8 10 Clear CLR 79 64     60%   79 30.09 30.07      
Jun 24 14:53 N 11 10 Clear CLR 79 63     58%   79 30.1 30.09      
Jun 24 13:53 N 10 10 Clear CLR 80 66     62%   82 30.11 30.09      
Jun 24 12:53 8 10 Clear CLR 78 66     67%   79 30.11 30.09      
Jun 24 11:53 7 10 Clear CLR 79 64     60%   79 30.1 30.09      
Jun 24 10:53 11 10 Clear CLR 77 65     66%   78 30.1 30.09      
Jun 24 09:53 9 10 Partly Cloudy SCT075 74 65     74%   74 30.09 30.08      
Jun 24 08:53 N 9 10 Clear CLR 72 66     82%   73 30.08 30.06      
Jun 24 07:53 N 9 10 Clear CLR 70 66     87%     30.07 30.06      
Jun 24 06:53 N 7 10 Clear CLR 69 66     90%     30.04 30.03      
Jun 24 05:53 NNW 6 10 Clear CLR 69 67     93%     30.02 30.01      
Jun 24 04:53 NNW 5 10 Clear CLR 69 69     100%     30 29.98      
Jun 24 03:53 N 3 10 Clear CLR 69 69     100%     29.97 29.96      
Jun 24 01:53 N 6 10 Clear CLR 71 71     100%   73 29.94 29.92      
Jun 24 00:53 3 10 Clear CLR 72 72     100%   74 29.94 29.93     0
Jun 23 23:53 6 10 Clear CLR 72 72     100%   74 29.93 29.91      
Jun 23 22:53 3 10 Clear CLR 72 71     97%   73 29.91 29.9 0    
Jun 23 21:53 5 10 Clear CLR 72 72     100%   74 29.91 29.9 0 0  
Jun 23 20:53 NNW 7 10 Light Rain FEW013 SCT017 73 72     96%   75 29.91 29.89 0    
Jun 23 19:53 SE 6 10 Light Rain FEW120 73 72     96%   75 29.82 29.81 0    
Jun 23 18:53 NE 14 10 Cloudy BKN080 OVC100 74 72     94%   75 29.83 29.82 0   0
Jun 23 18:44 NE 16 10 Light Rain BKN080 OVC100 73 73     100%   75 29.83   0    
Jun 23 18:29 N 16 7 Light Rain FEW033 FEW070 OVC100 73 73     100%   75 29.83   0    
Jun 23 18:19 N 14 6 Light Rain and Fog/Mist FEW009 BKN065 OVC090 73 72     96%   75 29.83   0    
Jun 23 18:12 N 15 2 Light Rain and Fog/Mist FEW013 BKN028 OVC090 73 73     100%   75 29.83   0    
Jun 23 18:04   0.75 Heavy Rain and Fog/Mist FEW009 SCT017 OVC022 72 72     100%   74 29.82   0    
Jun 23 17:57   1.75 Heavy Rain and Fog/Mist SCT010 BKN017 OVC040 73 72     96%   75 29.83   0    
Jun 23 17:53   3 Light Rain and Fog/Mist FEW010 BKN017 OVC038 73 72     96%   75 29.82 29.81 0    
Jun 23 17:44   10 Mostly Cloudy FEW019 BKN027 BKN042 81 77     88%   88 29.83        
Jun 23 16:53 6 10 Mostly Cloudy SCT023 BKN033 83 79     88%   94 29.79 29.78      
Jun 23 15:53 6 10 Partly Cloudy FEW018 SCT027 84 79     85%   96 29.78 29.76   0  
Jun 23 15:26 6 10 Mostly Cloudy SCT018 BKN026 82 78     88%   91 29.78        
Jun 23 15:12 7 10 Partly Cloudy FEW016 SCT021 82 78     88%   91 29.77        
Jun 23 14:53 6 10 Mostly Cloudy BKN017 BKN024 82 77     85%   90 29.76 29.75      
Jun 23 14:50 WSW 7 10 Mostly Cloudy BKN017 BKN024 82 79     89%   92 29.77        
Jun 23 13:53 WSW 11 10 Mostly Cloudy BKN013 BKN060 80 77     90%   86 29.75 29.73 0    
Jun 23 13:49 WSW 8 10 Mostly Cloudy BKN013 BKN060 81 77     89%   87 29.75   0    
Jun 23 12:53 W 8 10 Cloudy SCT015 BKN020 OVC046 80 78     94%   86 29.75 29.73 0   1
Jun 23 11:53 WSW 8 10 Light Rain OVC030 78 77     96%   81 29.73 29.71 0    
Jun 23 11:34 WSW 9 10 Cloudy FEW009 OVC031 77 77     100%   79 29.72        
Jun 23 11:09 9 10 Cloudy OVC031 76 76     100%   78 29.72        
Jun 23 10:53 WSW 11 10 Cloudy FEW006 BKN025 OVC031 76 76     100%   78 29.72 29.7 0    
Jun 23 10:21 8 10 Light Rain FEW006 SCT010 OVC025 76 76     100%   78 29.69   0    
Jun 23 09:53 WSW 11 10 Light Rain OVC007 75 75     100%   77 29.68 29.67 0 1  
Jun 23 08:53 16 6 Light Rain BKN008 OVC012 75        %     29.65 29.64 0    
Jun 23 08:46 16 2.5 Light Rain BKN008 OVC012 75        %     29.64   0    
Jun 23 08:19 21 3 Light Rain BKN008 OVC015 73        %     29.62   0    
Jun 23 08:10 S 18 1 Heavy Rain BKN008 BKN013 OVC023 73        %     29.62   0    
Jun 23 08:05 20 0.75 Heavy Rain SCT007 BKN010 OVC023 73        %     29.62   0    
Jun 23 07:58 17 1.75 Rain SCT007 OVC012 75        %     29.62   0    
Jun 23 07:53 22 2.5 Rain SCT007 BKN012 OVC022 75        %     29.61 29.6 1    
Jun 23 07:50 21 2.5 Rain BKN009 BKN015 OVC022 75        %     29.61   1    
Jun 23 07:24 18 1 Heavy Rain BKN009 OVC014 73        %     29.58   0    
Jun 23 07:19 17 0.75 Heavy Rain SCT009 OVC014 73        %     29.59   0    
Jun 23 07:08 23 0.5 Heavy Rain FEW007 SCT012 OVC018 73        %     29.58   0    
Jun 23 07:00   0.25 Heavy Rain BKN010 OVC016 73        %     29.6   0    
Jun 23 06:53   0.75 Heavy Rain BKN010 BKN016 OVC021 75        %     29.6 29.59 0   1
Jun 23 06:45   0.75 Heavy Rain and Fog/Mist BKN010 OVC017 75 75     100%   77 29.61   0    
Jun 23 06:33   2.5 Rain and Fog/Mist OVC010 75 75     100%   77 29.61   0    
Jun 23 06:21   3 Rain and Fog/Mist BKN010 BKN014 OVC020 75 75     100%   77 29.62   0    
Jun 23 06:16   1.5 Rain and Fog/Mist BKN010 OVC014 74 74     100%   76 29.62   0    
Jun 23 06:01 S 18 1.5 Heavy Rain and Fog/Mist BKN009 BKN016 OVC022 74 74     100%   76 29.62   0    
Jun 23 05:53 16 2.5 Heavy Rain and Fog/Mist BKN012 OVC019 75 75     100%   77 29.63 29.61 0    
Jun 23 05:51 20 2.5 Rain and Fog/Mist SCT010 BKN014 OVC019 75 75     100%   77 29.63   0    
Jun 23 05:29 22 4 Light Rain and Fog/Mist BKN013 OVC020 75 75     100%   77 29.64   0    
Jun 23 04:53 22 3 Light Rain and Fog/Mist FEW012 BKN020 OVC025 75 74     96%   77 29.65 29.63 1    
Jun 23 04:04 S 23 1.75 Heavy Rain and Fog/Mist OVC022 76 74     94%   78 29.66   0    
Jun 23 03:53 S 20 5 Rain and Fog/Mist OVC024 77 74     90%   79 29.66 29.64 0 0  
Jun 23 02:53 S 16 10 Cloudy FEW023 OVC029 78 73     85%   80 29.69 29.67      
Jun 23 01:53 S 18 10 Cloudy BKN026 BKN044 OVC049 78 73     85%   80 29.71 29.69      
Jun 23 01:15 S 17 10 Cloudy SCT025 BKN034 OVC060 78 74     87%   80 29.72        
Jun 23 00:53 S 16 10 Cloudy FEW020 OVC025 78 75     90%   80 29.72 29.71 0   0
Jun 23 00:19 S 16 10 Mostly Cloudy BKN022 BKN028 BKN070 78 76     93%   80 29.73        
Jun 22 23:53 17 10 Mostly Cloudy FEW039 FEW070 BKN110 78 76     93%   80 29.73 29.71      
Jun 22 22:53 18 10 Mostly Clear FEW090 79 76     90%   83 29.73 29.71      
Jun 22 21:53 SE 16 10 Cloudy BKN075 OVC090 79 77     94%   83 29.73 29.72   0  
Jun 22 20:53 SE 11 10 Cloudy BKN080 OVC095 79 77     94%   83 29.72 29.71 0    
Jun 22 19:53 8 10 Cloudy BKN047 BKN060 OVC110 79 78     97%   83 29.73 29.71 0    
Jun 22 18:53 8 10 Light Rain FEW048 BKN075 BKN095 79 77     94%   83 29.72 29.71 0   0
Jun 22 17:53 3 10 Mostly Cloudy FEW031 BKN080 BKN100 76 75     97%   78 29.72 29.71 0    
Jun 22 17:40 WSW 6 4 Light Rain and Fog/Mist FEW031 BKN060 OVC085 77 75     94%   79 29.73   0    
Jun 22 17:29 13 1.5 Thunderstorms and Rain FEW028 SCT033 BKN041 81 76     85%   87 29.73   0    
Jun 22 17:21 11 10 Thunderstorms FEW041 SCT060 BKN090 85 76     75%   94 29.72        
Jun 22 16:53 SE 10 10 Mostly Clear FEW100 86 77     75%   97 29.71 29.7      
Jun 22 15:53 14 10 Partly Cloudy FEW037 SCT047 SCT075 85 76     75%   94 29.74 29.72   0  
Jun 22 14:53 S 11 10 Partly Cloudy FEW043 SCT085 88 75     66%   98 29.75 29.73      
Jun 22 13:53 SE 9 10 Cloudy FEW030 SCT048 OVC070 85 76     75%   94 29.76 29.75 0    
Jun 22 12:53 13 10 Partly Cloudy SCT025 SCT034 SCT070 85 77     77%   95 29.79 29.77      
Jun 22 11:53 S 11 10 Mostly Cloudy SCT020 BKN025 BKN035 83 77     82%   92 29.81 29.79      
Jun 22 11:36 14 10 Cloudy SCT018 SCT024 OVC035 83 77     82%   92 29.82        
Jun 22 11:05 18 10 Cloudy OVC018 81 76     85%   87 29.82        
Jun 22 10:53 SE 13 10 Cloudy BKN014 OVC021 81 77     88%   88 29.82 29.81      
Jun 22 09:53 SE 14 10 Cloudy BKN013 OVC025 78 76     93%   80 29.84 29.82      
Jun 22 09:37 SE 13 10 Cloudy BKN014 OVC028 79 76     90%   83 29.84        
Jun 22 08:53 SE 14 10 Cloudy BKN017 OVC037 78 75     90%   80 29.85 29.83      
Jun 22 08:45 SE 13 10 Cloudy FEW013 BKN017 OVC050 78 75     90%   80 29.85        
Jun 22 08:31 SE 11 10 Cloudy BKN013 BKN032 OVC055 77 75     94%   79 29.85        
Jun 22 07:53 SE 13 10 Cloudy SCT012 OVC026 76 75     97%   78 29.85 29.83      
Jun 22 07:06 SE 14 10 Mostly Cloudy BKN014 BKN029 BKN070 76 74     94%   78 29.83        
Jun 22 06:53 SE 14 10 Partly Cloudy SCT014 SCT070 76 74     94%   78 29.83 29.81      
Jun 22 06:06 SE 13 10 Cloudy SCT015 BKN041 OVC055 75 73     94%   77 29.83        
Jun 22 05:53 SE 10 10 Mostly Cloudy BKN017 BKN055 BKN080 75 73     94%   77 29.83 29.82      
Jun 22 04:53 SE 10 10 Cloudy BKN020 BKN025 OVC042 75 73     94%   77 29.83 29.81      
Jun 22 04:48 SE 10 10 Cloudy BKN020 BKN025 OVC042 75 73     94%   77 29.83        
Jun 22 03:53 11 10 Mostly Cloudy FEW025 BKN110 75 72     90%   76 29.83 29.81      
Jun 22 02:53 SE 9 10 Cloudy OVC100 75 73     94%   77 29.85 29.84      
Jun 22 01:53 SE 11 10 Cloudy SCT015 BKN075 OVC090 75 73     94%   77 29.88 29.86      
Jun 22 01:42 SE 11 10 Cloudy BKN015 OVC075 75 73     94%   77 29.88        
Jun 22 00:53 SE 10 10 Cloudy BKN012 BKN020 OVC070 74 74     100%   76 29.89 29.88     0
Jun 22 00:51 SE 10 10 Cloudy BKN012 BKN020 OVC070 73 73     100%   75 29.89        
Jun 22 00:33 SE 11 10 Cloudy SCT012 BKN022 OVC095 74 74     100%   76 29.89        
Jun 21 23:53 11 10 Cloudy FEW013 SCT070 OVC085 74 74     100%   76 29.89 29.88 0    
Jun 21 23:24 SE 9 4 Light Rain and Fog/Mist FEW009 SCT013 OVC041 73 73     100%   75 29.9   0    
Jun 21 23:14 SE 13 2.5 Light Rain and Fog/Mist FEW009 SCT016 OVC039 73 73     100%   75 29.9   0    
Jun 21 23:02 SE 15 2.5 Rain and Fog/Mist FEW008 BKN019 OVC045 73 73     100%   75 29.91   0    
Jun 21 22:53 SE 11 4 Rain and Fog/Mist FEW013 BKN019 OVC045 74 73     97%   76 29.91 29.89 0    
Jun 21 22:48 SE 13 8 Cloudy FEW013 BKN019 OVC070 73 73     100%   75 29.91   0    
Jun 21 22:10 SE 13 6 Light Rain and Fog/Mist FEW020 SCT028 OVC055 75 73     94%   77 29.91   0    
Jun 21 21:53 SE 16 10 Cloudy BKN025 BKN033 OVC049 78 71     79%   79 29.92 29.9      
Jun 21 21:29 SE 17 10 Cloudy OVC027 79 71     77%   82 29.91        
Jun 21 20:53 SE 14 10 Mostly Cloudy BKN033 BKN047 79 71     77%   82 29.9 29.89      
Jun 21 19:53 SE 16 10 Mostly Clear FEW031 80 70     71%   83 29.9 29.89      
Jun 21 18:53 11 10 Mostly Cloudy BKN100 82 71     69%   86 29.9 29.89      
Jun 21 17:53 11 10 Cloudy OVC110 80 72     76%   84 29.92 29.9      
Jun 21 16:53 17 10 Cloudy FEW033 SCT060 OVC070 82 71     69%   86 29.93 29.92      
Jun 21 15:53 SE 17 10 Mostly Cloudy FEW043 SCT050 BKN070 84 73     70%   90 29.94 29.92      
Jun 21 14:53 E 11 10 Partly Cloudy FEW040 SCT050 85 70     61%   89 29.94 29.93      
Jun 21 13:53 SE 9 10 Clear CLR 86 70     59%   91 29.95 29.93      
Jun 21 12:53 9 10 Clear CLR 85 70     61%   89 29.97 29.95      
Jun 21 11:53 E 10 10 Clear CLR 83 71     67%   88 29.98 29.97      
Jun 21 10:53   10 Clear CLR 82 72     72%   87 29.98 29.97      
Jun 21 09:53 SE 9 10 Clear CLR 77 72     84%   78 29.99 29.98      
Jun 21 08:53 8 10 Clear CLR 75 72     90%   76 30 29.99      
Jun 21 07:53 8 9 Clear CLR 73 72     96%   75 30 29.99      
Jun 21 06:53 5 7 Clear CLR 72 72     100%   74 29.99 29.98      
Jun 21 05:53 S 3 8 Clear CLR 70 69     97%     29.98 29.96      
Jun 21 04:53 Calm 10 Clear CLR 71 69     93%   72 29.96 29.95      
Jun 21 03:53 Calm 9 Clear CLR 70 70     100%     29.95 29.93      
Jun 21 02:53 Calm 10 Clear CLR 71 70     96%   72 29.96 29.95      
Jun 21 01:53 Calm 10 Clear CLR 71 70     96%   72 29.97 29.96      
Jun 21 00:53 Calm 10 Clear CLR 73 71     94%   74 29.98 29.96      
Jun 20 23:53 Calm 10 Clear CLR 74 70     87%   75 29.99 29.97      
Jun 20 22:53 Calm 10 Clear CLR 74 69     85%   75 29.98 29.96      
Jun 20 21:53 S 3 10 Clear CLR 75 69     82%   76 29.97 29.96      
Jun 20 20:53 3 10 Clear CLR 77 69     77%   78 29.97 29.96      
Jun 20 19:53 Calm 10 Clear CLR 81 66     61%   83 29.97 29.95      
Jun 20 18:53 6 10 Clear CLR 88 60     39%   88 29.96 29.94      
Jun 20 17:53 Calm 10 Clear CLR 90 59     35%   89 29.96 29.94      
Jun 20 16:53 3 10 Clear CLR 89 61     39%   89 29.96 29.95      
Jun 20 15:53 Calm 10 Clear CLR 90 60     37%   90 29.98 29.96      
Jun 20 14:53 3 10 Clear CLR 89 59     36%   88 30 29.98      
Jun 20 13:53 N 6 10 Clear CLR 89 61     39%   89 30.01 30      
Jun 20 12:53 NE 5 10 Clear CLR 89 61     39%   89 30.03 30.01      
Jun 20 11:53 5 10 Clear CLR 86 67     53%   89 30.05 30.03      
Jun 20 10:53 Calm 10 Clear CLR 84 67     57%   87 30.06 30.04      
Jun 20 09:53 Calm 10 Clear CLR 82 64     55%   84 30.06 30.05      
Jun 20 08:53 5 10 Clear CLR 79 66     65%   80 30.06 30.05      
Jun 20 07:53 5 10 Clear CLR 75 66     74%   76 30.05 30.04      
Jun 20 06:53 3 10 Clear CLR 71 67     87%   72 30.04 30.02      
Jun 20 05:53 N 3 10 Clear CLR 68 67     96%     30.02 30.01      
Jun 20 04:53 Calm 8 Clear CLR 67 67     100%     30.02 30.01      
Jun 20 03:53 Calm 10 Clear CLR 69 69     100%     30.01 29.99      
Jun 20 02:53 Calm 10 Clear CLR 69 69     100%     30.01 30      
Jun 20 01:53 Calm 10 Clear CLR 71 69     93%   72 30.02 30.01      
Jun 20 00:53 Calm 10 Clear CLR 71 69     93%   72 30.03 30.02      
Jun 19 23:53 Calm 10 Clear CLR 71 69     93%   72 30.04 30.03      
Jun 19 22:53 Calm 10 Clear CLR 71 68     90%   72 30.03 30.02      
Jun 19 21:53 Calm 10 Clear CLR 72 69     91%   73 30.02 30.01      
Jun 19 20:53 Calm 10 Clear CLR 75 66     74%   76 30 29.98      
Jun 19 19:53 5 10 Clear CLR 82 64     55%   84 29.98 29.96      
Jun 19 18:53 NE 5 10 Clear CLR 86 62     45%   87 29.96 29.94      
Jun 19 17:53 N 8 10 Clear CLR 87 62     43%   88 29.95 29.94      
Jun 19 16:53 N 8 10 Clear   87 63     45%   88 29.95 29.93      
Jun 19 15:53 N 7 10 Clear CLR 87 62     43%   88 29.96 29.94      
Jun 19 14:53 5 10 Clear CLR 85 65     51%   87 29.98 29.96      
Jun 19 13:53 6 10 Clear CLR 84 66     55%   86 29.98 29.96      
Jun 19 12:53 5 10 Mostly Clear FEW042 83 66     57%   85 30 29.98     0
Jun 19 11:53 6 10 Mostly Clear FEW033 82 67     60%   85 30.01 30      
Jun 19 09:53 W 5 10 Cloudy OVC060 75 71     88%   76 30 29.99   0  
Jun 19 08:53 Calm 10 Cloudy OVC065 73 71     94%   74 29.99 29.98      
Jun 19 07:53 W 3 10 Mostly Cloudy BKN070 BKN120 71 71     100%   73 29.98 29.96 0    
Jun 19 06:53 NNW 5 5 Light Rain and Fog/Mist BKN090 OVC110 71 71     100%   73 29.94 29.93 0   0
Jun 19 04:53 Calm 10 Partly Cloudy SCT110 71 70     96%   72 29.91 29.9 0    
Jun 19 03:53 NNW 5 10 Mostly Clear FEW090 FEW120 72 69     91%   73 29.9 29.88 0 0  
Jun 19 01:53 NNW 5 10 Mostly Clear FEW110 73 72     96%   75 29.9 29.88 0    
Jun 19 00:53 Calm 10 Clear CLR 73 73     100%   75 29.91 29.9     0
Jun 18 21:53 Calm 10 Mostly Clear FEW120 73 72     96%   75 29.89 29.87      
Jun 18 20:53 WSW 5 10 Mostly Clear FEW120 73 73     100%   75 29.87 29.85      
Jun 18 19:53 W 3 10 Clear CLR 74 73     97%   76 29.84 29.82      
Jun 18 18:53 W 5 10 Clear CLR 73 73     100%   75 29.82 29.81     0
Jun 18 17:53 Calm 10 Mostly Clear FEW110 73 71     94%   74 29.82 29.8 0    
Jun 18 17:35 6 10 Partly Cloudy SCT012 72 71     97%   73 29.81   0    
Jun 18 17:20 10 10 Light Rain BKN012 BKN043 OVC110 72 71     97%   73 29.8   0    
Jun 18 16:53 10 10 Light Rain   72 71     97%   73 29.76 29.74 0    
Jun 18 16:15 10 9 Light Rain SCT110 73 71     94%   74 29.73   0    
Jun 18 15:53 S 15 10 Thunderstorms and Rain SCT110 72 71     97%   73 29.73   0 0  
Jun 18 15:23 S 8 9 Light Rain SCT120 72 72     100%   74 29.77   0    
Jun 18 14:53 WSW 10 3 Thunderstorms and Rain and Fog/Mist FEW019 BKN095 OVC110 72 71     97%   73 29.83 29.82 0    
Notice The following observation data may not be complete
Jun 18 14:37 W 14 2.5 Thunderstorms and Rain and Fog/Mist FEW012 SCT022 BKN030   72      %     29.84   0    
Jun 18 14:28 W 17 8 Thunderstorms FEW014 SCT023 BKN035 76 72     88%   77 29.84        
Jun 18 14:07 11 9 Mostly Clear FEW026 FEW034 85 78     80%   97 29.79        
Jun 18 13:53 10 9 Partly Cloudy FEW024 SCT035 86 78     77%   98 29.79 29.78      
Jun 18 13:23 9 10 Mostly Cloudy FEW023 SCT033 BKN042 87 79     77%   101 29.8        
Jun 18 13:14 11 10 Mostly Cloudy FEW025 SCT033 BKN042 87 79     77%   101 29.79        
Jun 18 11:15 10 10 Partly Cloudy SCT019 85 78     80%   97 29.83        
Jun 18 11:06 10 10 Mostly Cloudy BKN019 85 78     80%   97 29.83        
Jun 18 10:53 7 10 Partly Cloudy SCT017 SCT022 85 79     82%   98 29.83 29.81      
Jun 18 08:53 5 9 Clear   81 78     91%   89 29.84 29.82      
Jun 18 08:44 7 9 Mostly Cloudy BKN010 81 78     91%   89 29.83        
Jun 18 08:14 8 9 Partly Cloudy SCT009 79 77     94%   83 29.83        
Jun 18 07:53 10 8 Partly Cloudy FEW010 SCT033 79 77     94%   83 29.81 29.79      
Jun 18 06:53 S 8 7 Mostly Cloudy FEW036 SCT055 BKN110 77 76     96%   79 29.81 29.79      
Jun 18 05:53 S 7 7 Mostly Clear FEW038 76 76     100%   78 29.8 29.78      
Jun 18 04:53 S 6 8 Mostly Cloudy BKN042 76 76     100%   78 29.79 29.77      
Jun 18 03:53 S 6 9 Clear CLR 77 76     96%   79 29.79 29.77      
Jun 18 02:53 S 7 9 Clear CLR 78 76     93%   80 29.77 29.76      
Jun 18 01:53 S 7 9 Clear CLR 78 76     93%   80 29.77 29.75      
Jun 18 00:53 5 10 Clear CLR 79 76     90%   83 29.76 29.74      
Jun 17 22:53 S 9 8 Clear CLR 79 78     97%   83 29.74 29.72      
Jun 17 21:53 S 7 8 Clear CLR 79 78     97%   83 29.75 29.73      
Jun 17 20:53 S 5 9 Clear CLR 79 77     94%   83 29.76 29.74      
Jun 17 19:53 5 9 Clear CLR 83 77     82%   92 29.75 29.73      
Jun 17 18:53 S 8 10 Clear CLR 85 77     77%   95 29.74 29.72      
Jun 17 17:53 8 10 Clear CLR 86 77     75%   97 29.73 29.72      
Jun 17 16:53 9 10 Mostly Clear FEW029 86 76     72%   96 29.74 29.73      
Jun 17 15:53 8 10 Clear CLR 87 78     75%   100 29.75 29.74      
Jun 17 14:53 8 10 Mostly Cloudy FEW025 SCT032 BKN043 85 77     77%   95 29.77 29.75      
Jun 17 13:53 S 11 10 Mostly Clear FEW023 85 77     77%   95 29.77 29.75      
Jun 17 12:53 10 10 Clear CLR 85 77     77%   95 29.76 29.75      
Jun 17 11:53 S 13 10 Mostly Clear FEW016 83 77     82%   92 29.77 29.75      
Jun 17 10:53 S 13 10 Clear CLR 80 74     82%   85 29.78 29.76      
Jun 17 08:53 6 10 Mostly Clear FEW043 73 70     90%   74 29.83 29.81      
Jun 17 07:53 WSW 5 10 Mostly Cloudy SCT047 BKN060 71 70     96%   72 29.84 29.83      
Jun 17 06:53 3 10 Cloudy BKN042 BKN049 OVC060 69 69     100%     29.83 29.82      
Jun 17 05:53 S 8 10 Mostly Cloudy FEW047 BKN055 BKN080 68 68     100%     29.81 29.8      
Jun 17 04:53 S 7 9 Mostly Clear FEW046 67 67     100%     29.8 29.79      
Jun 17 02:53 S 7 9 Clear CLR 67 67     100%     29.79 29.78      
Jun 17 01:53 S 6 9 Clear CLR 67 67     100%     29.8 29.79      
Jun 17 00:53 SE 5 9 Clear CLR 68 68     100%     29.8 29.78      
Jun 16 21:53 3 10 Clear CLR 69 69     100%     29.81 29.8      
Jun 16 20:53 SE 6 10 Clear CLR 71 69     93%   72 29.82 29.8      
Jun 16 18:53 5 10 Clear CLR 72 69     91%   73 29.81 29.79     0
Jun 16 16:53 9 10 Clear CLR 71 69     93%   72 29.84 29.83 0    
Jun 16 16:18 S 6 10 Light Rain FEW065 SCT080 BKN100 70 69     97%     29.85   0    
Jun 16 15:53 S 7 7 Light Rain BKN120 70 70     100%     29.85 29.83 0 0  
Jun 16 14:53 9 10 Thunderstorms and Rain FEW080 BKN110 70 70     100%     29.86 29.85 0    
Jun 16 13:53 10 6 Thunderstorms and Rain and Fog/Mist FEW024 SCT060 OVC110 71 69     93%   72 29.89 29.87 0    
Notice The following observation data may not be complete
Jun 16 13:39 16 1 Thunderstorms and Rain and Fog/Mist SCT029 BKN060 OVC080   67      %     29.9   0    
Notice The following observation data may not be complete
Jun 16 13:27 W 16 1.5 Thunderstorms and Heavy Rain SCT034 BKN060 OVC110          %     29.87   0    
Jun 16 13:02 Calm 9 Thunderstorms FEW032 SCT039 SCT110 86 74     67%   94 29.85        
Jun 16 12:53 S 9 10 Partly Cloudy FEW038 SCT110 88 75     66%   98 29.84 29.83      
Jun 16 12:49 S 10 10 Partly Cloudy FEW037 SCT110 90 75     63%   100 29.84        
Jun 16 12:11 7 9 Mostly Clear FEW026 88 76     68%   99 29.87        
Jun 16 12:04 9 9 Mostly Cloudy BKN025 87 76     70%   98 29.87        
Jun 16 11:53 S 10 9 Partly Cloudy SCT024 SCT031 87 77     72%   99 29.87 29.85      
Jun 16 10:53 9 8 Clear CLR 85 77     77%   95 29.86 29.84      
Jun 16 09:53 S 13 8 Clear CLR 84 77     80%   94 29.86 29.85      
Jun 16 08:53 11 8 Clear CLR 81 76     85%   87 29.86 29.84      
Jun 16 07:53 S 8 8 Clear CLR 78 75     90%   80 29.85 29.84      
Jun 16 06:53 S 3 8 Mostly Clear FEW019 FEW024 74 73     97%   76 29.87 29.86      
Jun 16 04:53 S 3 8 Mostly Cloudy BKN031 BKN045 72 72     100%   74 29.9 29.88      
Jun 16 03:53 Calm 9 Clear CLR 73 72     96%   75 29.9 29.88      
Jun 16 02:53 3 7 Clear CLR 74 74     100%   76 29.87 29.85      
Jun 16 01:53 S 5 10 Clear CLR 73 72     96%   75 29.88 29.86      
Jun 16 00:53 Calm 9 Clear CLR 73 72     96%   75 29.88 29.86      
Jun 15 23:53 Calm 10 Clear CLR 74 73     97%   76 29.9 29.89      
Jun 15 22:53 3 10 Clear CLR 76 73     91%   77 29.9 29.89      
Jun 15 21:53 S 5 10 Clear CLR 77 71     82%   78 29.89 29.87      
Jun 15 19:53 Calm 10 Clear CLR 83 71     67%   88 29.87 29.85      
Jun 15 18:53 6 10 Clear CLR 87 71     59%   93 29.87 29.85      
Jun 15 17:53 Calm 10 Clear CLR 88 68     52%   92 29.87 29.85      
Jun 15 16:53 6 10 Clear CLR 88 68     52%   92 29.88 29.87      
Jun 15 13:53 3 10 Clear CLR 86 64     48%   87 29.89 29.88      
Jun 15 11:53 N 6 10 Clear CLR 79 68     69%   80 29.96 29.94      
Jun 15 10:53 11 10 Clear CLR 75 71     88%   76 29.97 29.96 0    
Jun 15 10:46 N 9 10 Clear CLR 75 71     88%   76 29.98   0    
Jun 15 10:31 8 10 Mostly Clear FEW075 75 71     88%   76 29.98   0    
Jun 15 10:22 N 9 10 Partly Cloudy FEW025 FEW075 SCT100 74 71     91%   75 29.99   0    
Jun 15 09:53   4 Thunderstorms and Rain FEW022 BKN050 OVC100 76 71     85%   77 29.98 29.96 0 0  
Jun 15 09:51   4 Thunderstorms and Rain FEW022 SCT037 BKN050 77 70     78%   78 29.98   0    
Jun 15 08:53 6 8 Clear CLR 80 77     90%   86 29.96 29.94      
Jun 15 07:53 Calm 9 Mostly Clear FEW050 FEW055 78 76     93%   80 29.98 29.96 0    
Jun 15 07:45 5 9 Mostly Clear FEW050 78 76     93%   80 29.97   0    
Jun 15 07:19 5 9 Mostly Clear FEW075 FEW095 76 75     97%   78 29.96   0    
Jun 15 07:00 6 9 Thunderstorms FEW039 SCT060 BKN075 76 75     97%   78 29.97   0    
Jun 15 06:53 6 2.5 Thunderstorms and Rain and Fog/Mist FEW039 BKN060 OVC090 76 75     97%   78 29.96 29.94 0   0
Jun 15 06:44 6 1.75 Rain and Fog/Mist SCT038 BKN047 OVC100 76 75     97%   78 29.96   0    
Jun 15 05:53 3 10 Cloudy OVC080 76 75     97%   78 29.95 29.93      
Jun 15 04:53 S 6 10 Mostly Cloudy BKN080 76 74     94%   78 29.92 29.9      
Jun 15 03:53 S 6 10 Mostly Cloudy BKN085 76 75     97%   78 29.92 29.91      
Jun 15 02:53 S 6 10 Clear CLR 76 74     94%   78 29.93 29.91      
Jun 15 00:53 S 6 10 Clear CLR 79 73     82%   82 29.94 29.93      
Jun 14 23:53 S 5 10 Clear CLR 78 74     87%   80 29.95 29.93      
Jun 14 22:53 3 10 Mostly Cloudy BKN070 80 72     76%   84 29.95 29.94      
Jun 14 21:53 Calm 10 Mostly Clear FEW080 81 72     74%   85 29.95 29.93      
Jun 14 20:53 6 10 Clear CLR 83 72     70%   88 29.93 29.92      
Jun 14 19:53 7 10 Mostly Clear FEW045 85 73     68%   92 29.93 29.91      
Jun 14 18:53 8 10 Clear CLR 87 73     63%   95 29.92 29.9     0
Jun 14 17:53 9 10 Clear CLR 89 74     61%   98 29.91 29.9      
Jun 14 16:53 S 15 10 Clear CLR 89 74     61%   98 29.92 29.9      
Jun 14 15:53 10 10 Mostly Clear FEW049 87 73     63%   95 29.94 29.92   0  
Jun 14 14:53 7 10 Clear CLR 89 75     63%   99 29.95 29.94 0    
Jun 14 14:00 Calm 4 Light Rain FEW040 FEW050 84 76     77%   93 29.97   0    
Jun 14 13:53 Calm 1.5 Heavy Rain FEW035 SCT050 82 75     79%   89 29.98 29.96 0    
Jun 14 13:51 Calm 1.75 Heavy Rain FEW032 FEW041 SCT050 82 75     79%   89 29.98   0    
Notice The following observation data may not be complete
Jun 14 13:22 Calm 4 Light Rain FEW033 SCT049 BKN060   75      %     30   0    
Jun 14 13:10 W 11 1.75 Light Rain SCT033 SCT050 OVC065 82 75     79%   89 30.01   0    
Jun 14 12:53 11 10 Cloudy FEW050 BKN060 OVC085 86 73     65%   93 30.01 29.99 0   0
Jun 14 11:53 S 5 10 Partly Cloudy SCT036 SCT044 86 73     65%   93 30.02 30      
Jun 14 10:53 9 10 Mostly Clear FEW029 86 73     65%   93 30.03 30.01      
Jun 14 09:53 9 10 Clear CLR 83 74     74%   89 30.03 30.02      
Jun 14 08:53 6 10 Mostly Clear FEW039 81 74     79%   86 30.03 30.02      
Jun 14 07:53 7 10 Clear CLR 79 74     85%   83 30.03 30.01      
Jun 14 06:53 S 6 10 Clear CLR 75 74     96%   77 30 29.99      
Jun 14 05:53 S 3 10 Clear CLR 74 73     97%   76 29.99 29.98      
Jun 14 04:53 S 6 10 Clear CLR 73 73     100%   75 29.96 29.94      
Jun 14 03:53 3 10 Clear CLR 75 74     96%   77 29.96 29.94      
Jun 14 02:53 5 10 Clear CLR 74 74     100%   76 29.95 29.93      
Jun 14 01:53 S 3 10 Clear CLR 75 73     94%   77 29.96 29.94      
Jun 14 00:53 S 3 10 Clear CLR 76 74     94%   78 29.96 29.94      
Jun 13 23:53 S 3 10 Clear CLR 77 74     90%   79 29.97 29.96      
Jun 13 21:53 S 8 10 Clear CLR 80 74     82%   85 29.97 29.96      
Jun 13 20:53 9 10 Partly Cloudy FEW041 FEW049 SCT080 81 74     79%   86 29.96 29.95      
Jun 13 19:53 S 10 10 Mostly Clear FEW044 83 73     72%   89 29.96 29.94      
Jun 13 18:53 7 10 Clear CLR 87 73     63%   95 29.94 29.93      
Jun 13 17:53 S 11 10 Partly Cloudy FEW050 SCT070 87 73     63%   95 29.94 29.92      
Jun 13 16:53 S 11 10 Mostly Clear FEW041 90 71     54%   96 29.95 29.94      
Jun 13 15:53 7 10 Clear CLR 89 72     57%   96 29.96 29.95      
Jun 13 14:53 8 10 Mostly Clear FEW037 89 72     57%   96 29.98 29.96      
Jun 13 13:53 13 10 Clear CLR 88 72     59%   95 30 29.98      
Jun 13 12:53 S 13 10 Mostly Clear FEW029 FEW090 86 73     65%   93 30.03 30.02      
Jun 13 11:53 S 13 10 Mostly Cloudy SCT027 BKN033 85 73     68%   92 30.05 30.03      
Jun 13 11:44 S 13 10 Partly Cloudy SCT027 85 73     68%   92 30.05        
Jun 13 11:21 S 14 10 Partly Cloudy FEW024 SCT029 84 74     72%   91 30.05        
Jun 13 10:53 S 11 10 Mostly Cloudy BKN022 BKN027 83 74     74%   89 30.06 30.04      
Jun 13 10:50 S 11 10 Mostly Cloudy BKN022 82 73     74%   88 30.06        
Jun 13 09:53 S 9 10 Mostly Clear FEW016 81 75     82%   87 30.06 30.04      
Jun 13 08:53 S 9 10 Clear CLR 78 73     85%   80 30.07 30.05      
Jun 13 06:53 S 8 10 Clear CLR 74 72     94%   75 30.04 30.03      
Jun 13 05:53 S 7 10 Clear CLR 72 72     100%   74 30.03 30.01      
Jun 13 04:53 S 7 10 Clear CLR 74 73     97%   76 30.02 30.01      
Jun 13 03:53 S 6 10 Clear CLR 74 74     100%   76 30.01 29.99      
Jun 13 02:53 S 7 10 Clear CLR 75 74     96%   77 30 29.98      
Jun 13 01:53 3 10 Clear CLR 75 74     96%   77 29.99 29.97      
Jun 13 00:53 S 6 10 Clear CLR 77 74     90%   79 30 29.98      
Jun 12 23:53 S 6 10 Clear CLR 77 74     90%   79 30.01 30      
Jun 12 22:53 S 5 10 Clear CLR 77 74     90%   79 30.02 30      
Jun 12 21:53 7 10 Clear CLR 78 74     87%   80 30 29.99      
Jun 12 20:53 8 10 Clear CLR 80 73     79%   84 29.99 29.98      
Jun 12 18:53 S 13 10 Clear CLR 85 70     61%   89 29.97 29.95      
Jun 12 17:53 S 15 10 Clear CLR 86 75     70%   95 29.97 29.96      
Jun 12 16:53 11 10 Clear CLR 88 75     66%   98 29.98 29.96      
Jun 12 14:53 14 10 Clear CLR 88 75     66%   98 30.01 29.99      
Jun 12 13:53 6 10 Partly Cloudy FEW037 SCT046 87 74     65%   95 30.03 30.01      
Jun 12 12:53 S 11 10 Mostly Cloudy BKN032 BKN043 86 73     65%   93 30.05 30.03      
Jun 12 11:53 7 10 Mostly Cloudy FEW021 BKN031 85 74     70%   92 30.08 30.06      
Jun 12 11:46 S 9 10 Mostly Cloudy FEW021 BKN031 84 74     72%   91 30.08        
Jun 12 07:53 S 11 10 Mostly Cloudy BKN012 78 74     87%   80 30.08 30.06      
Jun 12 07:39 S 11 10 Partly Cloudy SCT011 78 74     87%   80 30.07        
Jun 12 06:53 S 9 10 Cloudy OVC013 76 73     91%   77 30.06 30.04      
Jun 12 06:43 S 10 10 Mostly Cloudy BKN014 76 73     91%   77 30.06        
Jun 12 05:53 S 8 10 Mostly Cloudy BKN014 75 73     94%   77 30.04 30.03      
Jun 12 04:53 S 10 10 Clear CLR 75 73     94%   77 30.03 30.01      
Jun 12 03:53 10 10 Clear CLR 76 72     88%   77 30.02 30      
Jun 12 00:53 S 11 10 Clear CLR 78 71     79%   79 30.01 29.99      
Jun 11 23:53 7 10 Clear CLR 75 71     88%   76 30.01 29.99      
Jun 11 22:53 5 10 Clear CLR 76 70     82%   77 30.01 30      
Jun 11 21:53 5 10 Clear CLR 77 69     77%   78 30.01 29.99      
Jun 11 20:53 7 10 Clear CLR 79 69     72%   80 29.99 29.98      
Jun 11 19:53 8 10 Clear CLR 83 68     61%   86 29.99 29.97      
Jun 11 18:53 S 14 10 Clear CLR 86 66     51%   88 29.98 29.96      
Jun 11 17:53 S 11 10 Clear CLR 88 65     47%   90 29.98 29.97      
Jun 11 16:53 S 13 10 Partly Cloudy SCT060 89 66     47%   92 30 29.98      
Jun 11 15:53 15 10 Clear CLR 89 65     45%   91 30.01 30      
Jun 11 14:53 S 16 10 Clear CLR 89 65     45%   91 30.03 30.01      
Jun 11 13:53 11 10 Partly Cloudy SCT049 SCT055 86 67     53%   89 30.04 30.03      
Jun 11 12:53 13 10 Partly Cloudy SCT045 85 67     55%   88 30.06 30.04      
Jun 11 11:53 11 10 Partly Cloudy SCT040 84 68     59%   87 30.07 30.06      
Jun 11 10:53 S 11 10 Clear CLR 83 68     61%   86 30.07 30.06      
Jun 11 09:53 6 10 Clear CLR 81 68     65%   84 30.07 30.06      
Jun 11 08:53 S 9 10 Clear CLR 78 68     71%   79 30.07 30.05      
Jun 11 07:53 5 10 Clear CLR 75 67     76%   76 30.05 30.03      
Jun 11 06:53 S 6 9 Clear CLR 70 68     93%     30.04 30.02      
Jun 11 05:53 6 9 Clear CLR 66 65     96%     30.02 30.01      
Jun 11 03:53 3 10 Clear CLR 68 65     90%     30 29.98      
Jun 11 02:53 3 10 Clear CLR 69 64     84%     30 29.98      
Jun 11 01:53 6 10 Clear CLR 69 64     84%     30 29.98      
Jun 11 00:53 5 10 Clear CLR 70 64     81%     30 29.99      
Jun 10 23:53 6 10 Clear CLR 71 65     81%   72 30.01 29.99      
Jun 10 22:53 6 10 Clear CLR 72 64     76%   72 30 29.99      
Jun 10 21:53 S 7 10 Clear CLR 74 63     69%   74 29.98 29.97      
Jun 10 20:53 S 7 10 Clear CLR 77 61     58%   77 29.96 29.95      
Jun 10 19:53 S 10 10 Clear CLR 81 62     53%   82 29.95 29.94      
Jun 10 18:53 S 14 10 Clear CLR 84 61     46%   84 29.95 29.93      
Jun 10 17:53 14 10 Clear CLR 86 60     42%   86 29.95 29.93      
Jun 10 15:53 11 10 Mostly Cloudy BKN060 86 60     42%   86 29.96 29.95      
Jun 10 14:53 S 13 10 Clear CLR 86 60     42%   86 29.98 29.97      
Jun 10 13:53 S 9 10 Mostly Clear FEW055 85 61     45%   85 30 29.98      
Jun 10 12:53 6 10 Clear CLR 83 60     46%   83 30.01 30      
Jun 10 11:53 S 14 10 Mostly Clear FEW049 82 60     47%   82 30.02 30.01      
Jun 10 10:53 S 9 10 Clear CLR 80 59     49%   81 30.02 30.01      
Jun 10 09:53 S 11 10 Clear CLR 78 61     56%   78 30.02 30.01      
Jun 10 08:53 S 8 10 Clear CLR 75 62     64%   75 30.02 30.01      
Jun 10 07:53 S 8 10 Clear CLR 71 64     79%   72 30.01 29.99      
Jun 10 06:53 3 10 Clear CLR 66 63     90%     29.99 29.97      
Jun 10 04:53 S 3 10 Clear CLR 64 61     90%     29.95 29.93      
Jun 10 03:53 Calm 10 Clear CLR 65 61     87%     29.94 29.93      
Jun 10 02:53 Calm 10 Clear CLR 64 61     90%     29.94 29.93      
Jun 10 01:53 S 3 10 Clear CLR 64 61     90%     29.95 29.93      
Jun 10 00:53 S 3 10 Clear CLR 66 61     84%     29.95 29.94      
Jun 09 23:53 S 3 10 Clear CLR 67 61     81%     29.95 29.94      
Jun 09 22:53 S 3 10 Clear CLR 69 61     75%     29.94 29.93      
Jun 09 21:53 Calm 10 Clear CLR 70 61     73%     29.93 29.91      
Jun 09 20:53 S 3 10 Clear CLR 72 61     68%   72 29.91 29.9      
Jun 09 19:53 3 10 Clear CLR 75 59     57%   75 29.9 29.89      
Jun 09 18:53 7 10 Clear CLR 79 57     47%   79 29.9 29.89      
Jun 09 17:53 3 10 Clear CLR 81 56     42%   81 29.9 29.89      
Jun 09 16:53 WSW 3 10 Clear CLR 82 54     38%   81 29.91 29.9      
Jun 09 15:53 Calm 10 Clear CLR 82 53     37%   81 29.92 29.91      
Jun 09 14:53 7 10 Clear CLR 81 54     39%   81 29.94 29.93      
Jun 09 13:53 Calm 10 Clear CLR 80 52     38%   80 29.96 29.95      
Jun 09 12:53 Calm 10 Clear CLR 79 52     39%   78 29.97 29.96      
Jun 09 11:53   10 Clear CLR 79 54     42%   79 29.98 29.97      
Jun 09 09:53 5 10 Clear CLR 76 59     56%   76 29.98 29.98      
Jun 09 08:53 6 10 Clear CLR 73 60     64%   73 29.99 29.98      
Jun 09 07:53 S 5 10 Clear CLR 68 62     81%     29.97 29.96      
Jun 09 06:53 Calm 7 Clear CLR 63 62     97%     29.95 29.94      
Jun 09 04:53 Calm 8 Clear CLR 58 58     100%     29.92 29.91      
Jun 09 03:53 Calm 10 Clear CLR 60 60     100%     29.92 29.91      
Jun 09 02:53 Calm 10 Clear   60 59     96%     29.92 29.91      
Jun 09 01:53 Calm 10 Clear CLR 60 59     96%     29.92 29.91      
Jun 09 00:53 Calm 10 Clear CLR 61 59     93%     29.93 29.92      
Jun 08 23:53 Calm 10 Clear CLR 62 59     90%     29.93 29.92      
Jun 08 22:53 Calm 10 Clear CLR 64 60     87%     29.92 29.91      
Jun 08 21:53 5 10 Clear CLR 63 59     87%     29.92 29.91      
Jun 08 20:53 Calm 10 Clear CLR 66 56     70%     29.91 29.89      
Jun 08 19:53 3 10 Clear CLR 73 54     51%   72 29.9 29.89      
Jun 08 18:53 7 10 Clear   77 51     40%   76 29.9 29.89      
Jun 08 16:53 N 8 10 Clear CLR 79 52     39%   78 29.91 29.9      
Jun 08 15:53 7 10 Clear CLR 79 52     39%   78 29.93 29.92      
Jun 08 14:53 6 10 Clear CLR 77 53     43%   76 29.95 29.94      
Jun 08 13:53 N 9 10 Mostly Clear FEW050 77 52     42%   76 29.97 29.96      
Jun 08 12:53 N 10 10 Mostly Clear FEW050 76 54     47%   75 29.99 29.98      
Jun 08 11:53 11 10 Partly Cloudy SCT050 74 57     56%   74 30 29.99      
Jun 08 10:53 N 8 10 Mostly Cloudy BKN039 BKN048 72 58     61%   72 30.01 30      
Jun 08 09:53 7 10 Clear CLR 72 59     64%   72 30.01 30      
Jun 08 08:53 E 7 10 Clear CLR 69 58     68%     30.01 30      
Jun 08 07:53 NE 9 10 Clear CLR 67 59     76%     30 29.98      
Jun 08 06:53 N 3 10 Clear CLR 64 60     87%     29.98 29.97      
Jun 08 05:53 N 6 10 Clear CLR 60 58     93%     29.96 29.95      
Jun 08 04:53 Calm 10 Clear CLR 60 59     96%     29.95 29.94      
Jun 08 03:53 Calm 10 Clear CLR 61 59     93%     29.94 29.93      
Jun 08 02:53 N 5 10 Clear CLR 64 58     81%     29.94 29.93      
Jun 08 01:53 N 7 10 Clear CLR 65 58     78%     29.94 29.93      
Jun 08 00:53 3 10 Clear CLR 64 59     84%     29.94 29.93      
Jun 07 23:53 N 5 10 Mostly Cloudy BKN070 67 57     71%     29.96 29.94      
Jun 07 22:53 N 5 10 Clear CLR 68 57     68%     29.96 29.94      
Jun 07 21:53 6 10 Clear CLR 71 56     59%   71 29.95 29.93      
Jun 07 20:53 N 6 10 Partly Cloudy SCT070 73 55     53%   73 29.93 29.92      
Jun 07 19:53 N 6 10 Partly Cloudy SCT075 76 55     48%   75 29.92 29.91      
Jun 07 18:53 NE 9 10 Mostly Clear FEW070 79 54     42%   79 29.91 29.9      
Jun 07 17:53 NE 13 10 Clear CLR 81 53     38%   80 29.91 29.9      
Jun 07 16:53 NE 17 10 Clear CLR 81 51     35%   80 29.91 29.9      
Jun 07 15:53 11 10 Clear CLR 82 52     35%   81 29.92 29.91      
Jun 07 14:53 NE 15 10 Clear CLR 82 53     37%   81 29.92 29.91      
Jun 07 13:53 15 10 Clear CLR 80 52     38%   80 29.93 29.92      
Jun 07 12:53 11 10 Clear CLR 81 56     42%   81 29.95 29.93      
Jun 07 11:53 7 10 Mostly Clear FEW055 79 56     45%   79 29.95 29.93      
Jun 07 10:53 NE 10 10 Clear CLR 78 58     50%   78 29.96 29.94      
Jun 07 09:53 NE 13 10 Clear CLR 75 59     57%   75 29.95 29.94      
Jun 07 08:53 11 10 Clear CLR 72 60     66%   72 29.96 29.94      
Jun 07 07:53 13 10 Clear CLR 69 61     75%     29.95 29.94      
Jun 06 14:53 N 9 10 Partly Cloudy FEW031 SCT085 85 73     68%   92 29.77 29.75      
Jun 06 13:53 N 11 10 Partly Cloudy FEW042 SCT050 SCT060 86 75     70%   95 29.78 29.77      
Jun 06 12:53 NE 13 10 Mostly Clear FEW042 86 70     59%   91 29.79 29.78      
Jun 06 11:53 E 8 10 Mostly Clear FEW033 84 71     65%   89 29.81 29.79      
Jun 06 10:53 10 10 Clear CLR 82 71     69%   86 29.81 29.79      
Jun 06 09:53 8 10 Clear CLR 79 72     79%   82 29.82 29.8      
Jun 06 09:02 7 10 Mostly Clear FEW009 75 73     94%   77 29.82        
Jun 06 08:53 9 10 Partly Cloudy SCT010 75 72     90%   76 29.83 29.81      
Jun 06 08:47 8 9 Partly Cloudy SCT010 75 73     94%   77 29.82        
Jun 06 08:09 9 7 Mostly Cloudy BKN006 73 73     100%   75 29.82        
Jun 06 07:53 8 5 Fog/Mist OVC004 72 72     100%   74 29.82 29.8      
Jun 06 07:34 NE 6 4 Fog/Mist OVC003 71 71     100%   73 29.81        
Jun 06 07:10 NE 8 3 Fog/Mist OVC002 71 71     100%   73 29.81        
Jun 06 07:01 9 1 Fog/Mist VV002 71 71     100%   73 29.81        
Jun 06 06:53 NE 7 0.5 Fog VV002 71 71     100%   73 29.81 29.8      
Jun 06 06:37 7 0.5 Fog VV002 71 71     100%   73 29.8        
Jun 06 05:53 NE 5 0.25 Fog VV002 71 71     100%   73 29.79 29.78      
Jun 06 05:44 5 0.5 Fog VV002 71 71     100%   73 29.79        
Jun 06 05:30 NE 3 0.75 Clear VV002 71 71     100%   73 29.79        
Jun 06 05:16 6 0.5 Fog VV002 71 71     100%   73 29.78        
Jun 06 05:08 6 0.75 Fog/Mist OVC002 71 71     100%   73 29.78        
Jun 06 05:02 N 5 2.5 Fog/Mist OVC002 71 71     100%   73 29.78        
Jun 06 04:53 N 3 4 Fog/Mist BKN003 71 71     100%   73 29.78 29.76      
Jun 06 04:42 Calm 5 Fog/Mist SCT003 71 71     100%   73 29.77        
Jun 06 03:53 N 5 7 Clear CLR 71 71     100%   73 29.77 29.76      
Jun 06 02:53 Calm 7 Mostly Cloudy BKN110 72 72     100%   74 29.77 29.75      
Jun 06 01:53 Calm 8 Mostly Cloudy BKN100 72 72     100%   74 29.78 29.76      
Jun 06 00:53 Calm 10 Mostly Cloudy BKN090 73 73     100%   75 29.78 29.77     0
Jun 05 23:53 Calm 4 Fog/Mist CLR 73 73     100%   75 29.78 29.77      
Jun 05 22:53 N 3 6 Fog/Mist FEW070 73 73     100%   75 29.78 29.77      
Jun 05 21:53 Calm 7 Clear   74 74     100%   76 29.77 29.76 0 0  
Jun 05 20:53 Calm 8 Light Rain CLR 74 74     100%   76 29.76 29.75 0    
Jun 05 19:53 Calm 9 Mostly Clear FEW038 75 74     96%   77 29.75 29.74      
Jun 05 18:53 Calm 10 Clear CLR 76 74     94%   78 29.74 29.73 0   0
Jun 05 17:53 Calm 7 Light Rain FEW060 BKN100 74 74     100%   76 29.74 29.72 0    
Jun 05 16:53 Calm 8 Light Rain BKN110 74 72     94%   75 29.73 29.71 0    
Jun 05 16:23 NNW 3 3 Light Rain and Fog/Mist FEW034 SCT045 OVC090 74 74     100%   76 29.74   0    
Jun 05 16:19 N 3 1 Light Rain and Fog/Mist SCT039 BKN055 OVC090 74 74     100%   76 29.74   0    
Jun 05 16:08 WSW 5 0.5 Heavy Rain and Fog BKN033 BKN046 OVC065 74 73     97%   76 29.73   0    
Jun 05 15:58 N 5 1.75 Heavy Rain and Fog/Mist SCT028 BKN050 OVC065 74 74     100%   76 29.73   0    
Jun 05 15:53 NNW 7 2 Light Rain and Fog/Mist BKN027 BKN036 OVC060 75 74     96%   77 29.74 29.72 0 0  
Jun 05 15:45 N 8 1.75 Heavy Rain and Fog/Mist BKN027 OVC034 75 74     96%   77 29.73   0    
Jun 05 15:23 Calm 10 Mostly Cloudy BKN026 BKN043 79 71     77%   82 29.73        
Jun 05 14:53 S 6 10 Mostly Cloudy FEW023 SCT041 BKN120 80 71     74%   84 29.74 29.72      
Jun 05 14:40 S 8 10 Mostly Cloudy FEW023 SCT028 BKN045 81 73     77%   86 29.74        
Jun 05 13:53 S 7 10 Cloudy BKN023 BKN031 OVC060 79 71     77%   82 29.76 29.75      
Jun 05 13:44 6 10 Mostly Cloudy SCT023 BKN028 BKN033 79 71     77%   82 29.76        
Jun 05 12:53 S 7 10 Partly Cloudy SCT015 80 72     76%   84 29.77 29.76      
Jun 05 11:53 S 7 10 Cloudy FEW015 SCT036 OVC050 77 73     88%   79 29.78 29.77      
Jun 05 11:22 7 10 Cloudy BKN016 BKN029 OVC044 76 72     88%   77 29.78        
Jun 05 10:53 6 10 Cloudy SCT016 SCT032 OVC043 76 71     85%   77 29.78 29.77      
Jun 05 09:53 6 10 Cloudy FEW012 BKN017 OVC028 75 72     90%   76 29.79 29.78      
Jun 05 09:24 5 10 Cloudy FEW011 OVC015 73 71     94%   74 29.79        
Jun 05 09:03 6 10 Cloudy BKN012 BKN016 OVC045 73 72     96%   75 29.79        
Jun 05 08:53 7 10 Mostly Cloudy SCT010 BKN015 BKN045 73 72     96%   75 29.79 29.78      
Jun 05 08:28 7 10 Mostly Cloudy BKN011 73 72     96%   75 29.79        
Jun 05 07:53 S 5 10 Mostly Clear FEW008 72 72     100%   74 29.78 29.77      
Jun 05 07:36 3 10 Partly Cloudy SCT007 72 72     100%   74 29.79        
Jun 05 07:30 3 9 Mostly Cloudy BKN007 BKN017 72 72     100%   74 29.78        
Jun 05 07:22 3 9 Partly Cloudy SCT007 71 71     100%   73 29.78        
Jun 05 06:53 S 6 9 Mostly Cloudy BKN007 BKN110 71 71     100%   73 29.78 29.77      
Jun 05 06:40 S 6 9 Mostly Cloudy BKN007 BKN110 71 71     100%   73 29.78        
Jun 05 06:01 S 7 8 Partly Cloudy SCT008 71 71     100%   73 29.78        
Jun 05 05:53 S 8 9 Mostly Cloudy BKN008 71 71     100%   73 29.77 29.76      
Jun 05 05:24 S 8 10 Mostly Cloudy BKN007 71 71     100%   73 29.77        
Jun 05 05:15 S 7 9 Partly Cloudy SCT008 71 71     100%   73 29.77        
Jun 05 04:53 S 7 10 Clear CLR 71 71     100%   73 29.77 29.75      
Jun 05 04:20 8 10 Mostly Clear FEW008 71 71     100%   73 29.76        
Jun 05 03:53 S 6 9 Mostly Clear FEW120 71 71     100%   73 29.76 29.75      
Jun 05 02:53 5 8 Mostly Cloudy SCT080 BKN100 72 72     100%   74 29.77 29.76      
Jun 05 01:53 5 7 Mostly Cloudy FEW005 BKN110 72 72     100%   74 29.79 29.78      
Jun 05 01:42 SE 3 8 Mostly Cloudy FEW005 SCT050 BKN120 72 72     100%   74 29.79        
Jun 05 01:22 5 9 Cloudy BKN005 OVC050 72 72     100%   74 29.8        
Jun 05 01:02 5 9 Cloudy BKN004 BKN008 OVC060 72 72     100%   74 29.8        
Jun 05 00:53 3 9 Cloudy FEW008 SCT050 OVC060 72 72     100%   74 29.8 29.79      
Jun 05 00:48 5 10 Cloudy FEW008 SCT050 OVC060 72 72     100%   73 29.81        
Jun 04 23:53 3 8 Clear   72 72     100%   74 29.81 29.8      
Jun 04 22:53 S 6 9 Mostly Cloudy SCT004 BKN035 72 72     100%   74 29.81 29.79      
Jun 04 22:49 S 5 10 Mostly Cloudy SCT004 BKN035 72 72     100%   73 29.81        
Jun 04 22:24 S 6 9 Mostly Cloudy BKN005 BKN009 72 72     100%   74 29.81        
Jun 04 22:00 5 10 Partly Cloudy SCT007 71 71     100%   73 29.81        
Jun 04 21:53 3 10 Clear CLR 71 71     100%   73 29.81 29.79      
Jun 04 20:53 Calm 10 Clear CLR 72 72     100%   74 29.8 29.78      
Jun 04 19:53 S 6 10 Mostly Clear FEW026 74 73     97%   76 29.79 29.78      
Jun 04 19:34 S 10 10 Partly Cloudy FEW009 SCT012 SCT026 74 73     97%   76 29.79        
Jun 04 19:22 6 10 Mostly Cloudy FEW009 SCT014 BKN026 75 75     100%   77 29.78        
Jun 04 18:53 Calm 10 Partly Cloudy FEW010 SCT033 75 75     100%   77 29.78 29.76 0   0
Jun 04 17:53 S 5 10 Light Rain FEW041 SCT055 BKN090 74 74     100%   76 29.79 29.78 0    
Jun 04 16:53 S 3 10 Clear CLR 74 74     100%   76 29.8 29.78 0    
Jun 04 15:53 S 8 4 Rain and Fog/Mist BKN110 73 73     100%   75 29.81 29.8 0 0  
Jun 04 15:35 S 11 10 Mostly Cloudy SCT012 SCT020 BKN110 74 73     97%   76 29.83   0    
Jun 04 15:01 10 10 Light Rain BKN010 BKN045 75 74     96%   77 29.84   0    
Jun 04 14:53 10 9 Light Rain SCT010 75 75     100%   77 29.84 29.83 0    
Jun 04 13:53 S 5 8 Light Rain SCT008 SCT049 OVC100 75 75     100%   77 29.83 29.82 0    
Jun 04 13:09 S 11 3 Light Rain and Fog/Mist FEW007 BKN080 OVC100 74 74     100%   76 29.86   0    
Jun 04 13:05 S 11 1.75 Light Rain and Fog/Mist SCT007 BKN036 OVC100 74 74     100%   76 29.86   0    
Jun 04 12:58 S 10 1.75 Heavy Rain and Fog/Mist BKN009 BKN026 OVC095 74 74     100%   76 29.87   0    
Jun 04 12:53 S 15 6 Light Rain and Fog/Mist BKN009 OVC095 74 74     100%   76 29.87 29.85 0   1
Jun 04 12:07 S 9 7 Cloudy BKN008 OVC017 74 74     100%   76 29.88   0    
Jun 04 11:53 S 8 5 Light Rain and Fog/Mist SCT008 BKN015 OVC024 73 73     100%   75 29.89 29.88 0    
Jun 04 11:43 8 4 Light Rain and Fog/Mist SCT008 BKN018 OVC029 73 73     100%   75 29.89   0    
Jun 04 11:38 9 3 Rain and Fog/Mist FEW014 BKN030 OVC065 73 73     100%   75 29.9   0    
Jun 04 11:27 9 5 Light Rain and Fog/Mist SCT013 BKN019 OVC036 73 73     100%   75 29.9   0    
Jun 04 11:09 SE 10 2 Rain and Fog/Mist FEW005 SCT012 OVC017 72 72     100%   74 29.89   0    
Jun 04 11:06 SE 11 1 Rain and Fog/Mist FEW005 BKN014 OVC021 72 72     100%   74 29.9   0    
Jun 04 11:03 SE 10 0.75 Heavy Rain and Fog/Mist FEW005 OVC016 72 72     100%   74 29.9   0    
Jun 04 10:53 SE 15 0.25 Heavy Rain and Fog FEW005 BKN017 OVC040 72 72     100%   74 29.9 29.88 1    
Jun 04 10:48 15 0.5 Heavy Rain and Fog SCT005 BKN017 OVC040 72 72     100%   73 29.9   0    
Jun 04 10:30 SE 9 1.75 Light Rain and Fog/Mist SCT009 BKN017 OVC040 73 73     100%   75 29.9   0    
Jun 04 10:22 10 1.75 Light Rain and Fog/Mist SCT005 BKN014 OVC028 73 73     100%   75 29.9   0    
Jun 04 10:15 8 3 Light Rain and Fog/Mist SCT007 BKN015 OVC028 73 73     100%   75 29.9   0    
Jun 04 10:07 10 2 Light Rain and Fog/Mist BKN007 BKN011 OVC017 73 73     100%   75 29.9   0    
Jun 04 09:55 SE 8 1.75 Light Rain and Fog/Mist BKN008 OVC016 74 74     100%   76 29.9   0    
Jun 04 09:53 SE 7 2.5 Light Rain and Fog/Mist SCT006 OVC012 74 74     100%   76 29.9 29.89 0 0  
Jun 04 08:53 8 5 Light Rain and Fog/Mist OVC008 74 74     100%   76 29.91 29.89 0    
Jun 04 08:35 8 3 Light Rain and Fog/Mist OVC008 73 73     100%   75 29.9   0    
Jun 04 08:26 8 1.75 Rain and Fog/Mist OVC008 74 73     97%   76 29.9   0    
Jun 04 07:53 6 10 Cloudy OVC008 74 73     97%   76 29.9 29.89      
Jun 04 06:53 6 10 Cloudy OVC008 73 73     100%   75 29.9 29.89     0
Jun 04 06:36 6 10 Cloudy OVC009 73 73     100%   75 29.91        
Jun 04 05:53 SE 5 10 Cloudy OVC010 73 73     100%   75 29.9 29.88 0    
Jun 04 04:53 6 10 Light Rain OVC010 73 72     96%   75 29.9 29.89 0    
Jun 04 03:53 SE 6 10 Cloudy OVC011 74 72     94%   75 29.9 29.88      
Jun 04 02:53 5 10 Mostly Cloudy BKN014 BKN110 73 72     96%   75 29.91 29.89      
Jun 04 01:53 6 10 Clear CLR 72 72     100%   74 29.92 29.9      
Jun 04 00:53 Calm 10 Clear CLR 72 72     100%   74 29.92 29.91      
Jun 03 23:53 SE 5 10 Clear CLR 73 72     96%   75 29.94 29.92      
Jun 03 22:53 8 10 Clear CLR 75 72     90%   76 29.95 29.93      
Jun 03 21:53 10 10 Clear CLR 76 72     88%   77 29.94 29.93      
Jun 03 20:53 9 10 Mostly Cloudy SCT037 BKN050 77 72     84%   78 29.92 29.91      
Jun 03 19:53 E 5 9 Partly Cloudy SCT110 77 76     96%   79 29.92 29.9      
Jun 03 19:06 Calm 9 Partly Cloudy SCT120 76 76     100%   78 29.9        
Jun 03 18:53 Calm 9 Mostly Clear FEW120 77 76     96%   79 29.9 29.89 0   0
Jun 03 18:31 Calm 9 Mostly Cloudy FEW070 BKN090 BKN120 76 76     100%   78 29.9   0    
Jun 03 18:20 Calm 2 Rain and Fog/Mist SCT044 BKN090 OVC110 76 74     94%   78 29.9   0    
Jun 03 18:16 5 2 Rain and Fog/Mist SCT041 BKN070 OVC100 77 73     88%   79 29.91   0    
Jun 03 17:53 7 10 Mostly Cloudy BKN047 BKN055 BKN100 84 71     65%   89 29.9 29.89      
Jun 03 16:53 9 10 Mostly Cloudy SCT040 BKN049 BKN100 85 71     63%   90 29.9 29.89      
Jun 03 15:53 SE 8 10 Mostly Clear FEW048 86 71     61%   92 29.92 29.9      
Jun 03 14:53 E 10 10 Partly Cloudy SCT040 SCT080 85 73     68%   92 29.95 29.93      
Jun 03 13:53 10 10 Mostly Clear FEW016 85 72     65%   91 29.96 29.95      
Jun 03 12:53 SE 10 10 Mostly Cloudy BKN033 85 71     63%   90 29.98 29.96      
Jun 03 11:53 6 10 Mostly Cloudy FEW037 SCT050 BKN065 83 71     67%   88 30 29.98      
Jun 03 10:53 SE 8 10 Mostly Clear FEW028 81 71     72%   85 30.01 30      
Jun 03 09:53 5 10 Clear CLR 79 72     79%   82 30.03 30.01      
Jun 03 08:53 3 10 Clear CLR 75 71     88%   76 30.03 30.02      
Jun 03 07:53 7 10 Clear CLR 72 70     93%   73 30.02 30.01      
Jun 03 06:53 E 3 9 Clear CLR 70 70     100%     30.02 30      
Jun 03 05:53 3 10 Clear CLR 69 69     100%     30.01 29.99      
Jun 03 04:53 Calm 10 Clear CLR 69 69     100%     29.99 29.98      
Jun 03 03:53 Calm 10 Partly Cloudy SCT027 69 69     100%     29.98 29.97      
Jun 03 03:48 Calm 10 Mostly Cloudy BKN027 70 70     100%     29.98        
Jun 03 02:53 3 10 Cloudy FEW028 BKN060 OVC080 71 70     96%   72 29.98 29.96      
Jun 03 01:53 Calm 10 Mostly Cloudy BKN065 70 69     97%     29.99 29.97      
Jun 03 00:53 E 3 10 Clear CLR 71 70     96%   72 29.99 29.98      
Jun 02 23:53 Calm 10 Clear CLR 71 70     96%   72 30 29.98      
Jun 02 22:53 6 10 Clear CLR 73 70     90%   74 30 29.99      
Jun 02 21:53 Calm 10 Clear CLR 70 70     100%     29.99 29.98      
Jun 02 20:53 5 10 Clear CLR 74 70     87%   75 29.97 29.96      
Jun 02 19:53 Calm 10 Clear CLR 73 72     96%   75 29.98 29.97      
Jun 02 18:53 SE 9 10 Clear CLR 75 70     84%   76 29.96 29.95     0
Jun 02 17:53 SE 13 10 Mostly Cloudy FEW075 BKN095 BKN110 75 69     82%   76 29.98 29.97 0    
Jun 02 17:26 SE 11 10 Mostly Cloudy SCT090 BKN110 76 71     85%   77 29.99   0    
Jun 02 16:53 E 9 10 Thunderstorms FEW031 BKN055 OVC110 75 71     88%   76 29.99 29.98 0    
Jun 02 16:38 E 8 4 Thunderstorms and Rain SCT031 BKN038 OVC050 76 71     85%   77 29.99   0    
Jun 02 15:53 3 10 Cloudy FEW036 BKN055 OVC100 81 70     69%   84 29.98 29.97      
Jun 02 14:53 SE 8 10 Partly Cloudy SCT046 84 69     61%   88 29.99 29.98      
Jun 02 13:53 SE 8 10 Mostly Clear FEW038 83 68     61%   86 30.01 30      
Jun 02 13:00 NE 22 6.21 Windy   87 81     83%   103   29.78      
Jun 02 12:53 S 6 10 Mostly Cloudy SCT033 BKN046 BKN055 81 71     72%   85 30.04 30.03      
Jun 02 11:53 E 13 10 Mostly Cloudy FEW043 BKN060 BKN110 79 67     67%   80 30.06 30.04      
Jun 02 10:53 7 10 Partly Cloudy SCT120 78 67     69%   79 30.05 30.04      
Jun 02 09:53 6 10 Mostly Clear FEW100 74 69     85%   75 30.06 30.04      
Jun 02 08:53 7 10 Mostly Cloudy BKN090 BKN110 72 70     93%   73 30.07 30.06      
Jun 02 08:28 SE 8 10 Mostly Cloudy FEW025 BKN110 71 69     93%   72 30.07        
Jun 02 08:03 S 6 10 Mostly Cloudy BKN023 BKN033 70 70     100%     30.07        
Jun 02 07:53 S 9 10 Mostly Cloudy SCT023 BKN030 BKN038 71 69     93%   72 30.07 30.06      
Jun 02 06:53 5 10 Cloudy FEW080 OVC100 69 68     96%     30.06 30.05 0   0
Jun 02 06:32 5 7 Light Rain FEW026 BKN075 OVC090 69 69     100%     30.05   0    
Jun 02 06:25 6 2.5 Light Rain and Fog/Mist FEW012 BKN044 OVC085 69 68     96%     30.04   0    
Jun 02 06:15 8 1.5 Heavy Rain and Fog/Mist FEW012 BKN029 OVC048 69 69     100%     30.05   0    
Jun 02 06:13 9 2.5 Heavy Rain and Fog/Mist SCT017 BKN041 OVC048 69 69     100%     30.05   0    
Jun 02 06:02 5 5 Fog/Mist FEW004 BKN027 OVC041 69 69     100%     30.05        
Jun 02 05:53 Calm 4 Fog/Mist FEW030 BKN040 BKN046 68 68     100%     30.04 30.03      
Jun 02 05:30 Calm 3 Fog/Mist CLR 68 68     100%     30.03        
Jun 02 05:06 Calm 1.75 Fog/Mist CLR 67 67     100%     30.03        
Jun 02 04:53 Calm 3 Fog/Mist CLR 67 67     100%     30.02 30.01      
Jun 02 04:30 Calm 3 Fog/Mist FEW003 67 67     100%     30.02        
Jun 02 04:18 Calm 2 Fog/Mist FEW003 67 67     100%     30.02        
Jun 02 04:06 Calm 1 Fog/Mist VV003 67 67     100%     30.02        
Jun 02 04:02 Calm 2 Fog/Mist FEW003 67 67     100%     30.02        
Jun 02 03:57 Calm 3 Fog/Mist CLR 67 67     100%     30.02        
Jun 02 03:53 Calm 1.5 Fog/Mist CLR 67 67     100%     30.01 30      
Jun 02 03:42 Calm 2.5 Fog/Mist CLR 68 68     100%     30.01        
Jun 02 03:22 Calm 1.75 Fog/Mist CLR 68 68     100%     30.01        
Jun 02 03:07 Calm 3 Fog/Mist CLR 68 68     100%     30.01        
Jun 02 02:59 Calm 1.75 Fog/Mist CLR 68 68     100%     30.01        
Jun 02 02:53 Calm 5 Fog/Mist CLR 68 68     100%     30.01 30      
Jun 02 02:49 Calm 7 Clear CLR 68 68     100%     30.01        
Jun 02 02:42 Calm 2.5 Fog/Mist FEW003 67 67     100%     30.01        
Jun 02 02:38 Calm 1 Fog/Mist VV003 67 67     100%     30.01        
Jun 02 02:33 Calm 0.5 Fog VV003 67 67     100%     30.01        
Jun 02 02:14 Calm 0.25 Fog VV003 67 67     100%     30.01        
Jun 02 02:08 Calm 0.75 Fog/Mist VV003 67 67     100%     30.01        
Jun 02 02:04 Calm 2.5 Fog/Mist CLR 68 68     100%     30.01        
Jun 02 01:53 Calm 1.75 Fog/Mist CLR 68 68     100%     30.01 30      
Jun 02 01:50 Calm 1.75 Fog/Mist CLR 70 70     100%     30.01        
Jun 02 01:30 Calm 3 Fog/Mist CLR 68 68     100%     30.01        
Jun 02 01:22 Calm 1.25 Fog/Mist FEW002 68 68     100%     30.01        
Jun 02 01:20 Calm 0.75 Fog/Mist VV002 68 68     100%     30.01        
Jun 02 01:14 Calm 0.5 Fog CLR 68 68     100%     30.01        
Jun 02 01:05 Calm 1 Fog/Mist CLR 68 68     100%     30.01        
Jun 02 01:00 Calm 0.5 Fog CLR 69 69     100%     30.01        
Jun 02 00:53 Calm 0.75 Fog/Mist CLR 69 69     100%     30.02 30      
Jun 02 00:22 Calm 1 Fog/Mist CLR 69 69     100%     30.02        
Jun 02 00:14 Calm 2 Fog/Mist CLR 69 69     100%     30.02        
Jun 02 00:09 Calm 0.75 Fog/Mist CLR 69 69     100%     30.02        
Jun 02 00:01 Calm 1.5 Fog/Mist CLR 69 69     100%     30.02        
Jun 01 23:53 Calm 5 Fog/Mist CLR 70 70     100%     30.02 30.01      
Jun 01 23:18 Calm 3 Fog/Mist CLR 71 70     96%   72 30.03        
Jun 01 23:11 Calm 2.5 Fog/Mist CLR 70 70     100%     30.03        
Jun 01 23:06 Calm 0.75 Fog/Mist CLR 70 70     100%     30.03        
Jun 01 22:56 Calm 1.75 Fog/Mist CLR 69 69     100%     30.03        
Jun 01 22:53 Calm 3 Fog/Mist CLR 70 70     100%     30.03 30.02      
Jun 01 22:20 S 3 4 Fog/Mist CLR 71 71     100%   73 30.03        
Jun 01 22:11 Calm 1.75 Fog/Mist CLR 70 70     100%     30.03        
Jun 01 21:53 Calm 4 Fog/Mist CLR 71 71     100%   73 30.02 30.01      
Jun 01 20:53 Calm 8 Clear CLR 72 72     100%   74 30 29.99      
Jun 01 19:53 3 10 Clear CLR 75 71     88%   76 30 29.99      
Jun 01 18:53 Calm 10 Clear CLR 76 72     88%   77 30.01 30     1
Jun 01 17:53 S 6 10 Clear CLR 78 71     79%   79 30.01 29.99      
Jun 01 16:53 S 3 10 Clear CLR 75 71     88%   76 30.02 30.01      
Jun 01 15:53 Calm 10 Clear CLR 78 65     64%   79 30.02 30.01   1  
Notice The following observation data may not be complete
Jun 01 14:39 7 8 Light Rain BKN090 OVC110   63      %     30.04   1    
Notice The following observation data may not be complete
Jun 01 14:26 5 3 Thunderstorms and Rain SCT032 BKN090 OVC110   61      %     30.06   1    
Notice The following observation data may not be complete
Jun 01 14:16   2 Thunderstorms and Heavy Rain SCT028 BKN075 OVC110   61      %     30.07   1    
Notice The following observation data may not be complete
Jun 01 14:11   1 Thunderstorms and Heavy Rain and Fog/Mist BKN028 BKN039 OVC080   63      %     30.08   1    
Notice The following observation data may not be complete
Jun 01 14:04 NNW 10 0.5 Thunderstorms and Heavy Rain BKN022 BKN039 OVC046   60      %     30.09   0    
Notice The following observation data may not be complete
Jun 01 14:01 7 0.25 Thunderstorms and Heavy Rain SCT018 OVC041   61      %     30.1   0    
Notice The following observation data may not be complete
Jun 01 13:56   0.5 Thunderstorms and Heavy Rain SCT018 BKN041 OVC070   62      %     30.1   0    
Notice The following observation data may not be complete
Jun 01 13:53   1.25 Thunderstorms and Heavy Rain FEW024 BKN043 OVC070   62      %     30.11   0    
Notice The following observation data may not be complete
Jun 01 13:49   6 Thunderstorms and Rain and Squalls BKN041 BKN055 OVC075          %     30.07 30.06 0    
Notice The following observation data may not be complete
Jun 01 13:48   8 Thunderstorms and Rain and Squalls BKN041 BKN055 OVC080          %     30.06   0    
Jun 01 13:32   10 Thunderstorms BKN043 OVC090 81 66     61%   83 30.06        
Jun 01 13:05 WSW 3 10 Mostly Cloudy BKN045 83 67     59%   86 30.05        
Jun 01 13:00 E 30 6.21 Breezy   87 81     83%   106   29.87      
Jun 01 12:53 W 3 10 Partly Cloudy SCT045 83 66     57%   85 30.05 30.04      
Jun 01 11:53 3 10 Mostly Clear FEW050 83 71     67%   88 30.07 30.06      
Jun 01 10:53 Calm 10 Clear CLR 81 69     67%   84 30.08 30.06      
Jun 01 09:53 Calm 10 Clear CLR 79 71     77%   82 30.09 30.07      
Jun 01 08:53 Calm 10 Clear CLR 76 69     79%   77 30.08 30.07      
Jun 01 07:53 Calm 10 Clear CLR 73 70     90%   74 30.07 30.06      
Jun 01 06:53 Calm 8 Clear CLR 69 69     100%     30.07 30.06      
Jun 01 05:53 S 5 7 Clear CLR 68 68     100%     30.06 30.05      
Jun 01 04:53 Calm 4 Fog/Mist CLR 68 68     100%     30.04 30.02      
Jun 01 03:53 S 3 9 Clear CLR 69 69     100%     30.04 30.03      
Jun 01 02:53 S 5 8 Clear CLR 69 69     100%     30.03 30.01      
Jun 01 01:53 Calm 10 Clear CLR 69 69     100%     30.04 30.02      
Jun 01 00:53 Calm 10 Clear CLR 70 70     100%     30.04 30.03      
May 31 23:53 Calm 10 Clear CLR 73 68     84%   74 30.05 30.03      
May 31 22:53 5 10 Clear CLR 76 68     76%   77 30.06 30.04      
May 31 21:53 S 3 10 Clear CLR 73 71     94%   74 30.05 30.03      
May 31 20:53 6 10 Clear CLR 78 67     69%   79 30.03 30.02      
May 31 19:53 3 10 Clear CLR 77 68     74%   78 30.02 30.01      
May 31 18:53 5 10 Clear CLR 82 69     65%   85 30.01 30      
May 31 17:53 5 10 Clear CLR 84 65     53%   86 30.01 30      
May 31 16:53 3 10 Clear CLR 87 63     45%   88 30.01 30      
May 31 15:53 Calm 10 Clear CLR 85 66     53%   87 30.02 30.01      
May 31 14:53 Calm 10 Clear CLR 84 66     55%   86 30.04 30.03      
May 31 13:53 5 10 Mostly Clear FEW036 84 68     59%   87 30.06 30.05      
May 31 12:53 Calm 10 Clear   81 68     65%   84 30.08 30.07      
May 31 11:53 Calm 10 Clear CLR 80 68     67%   83 30.09 30.08      
May 31 10:53 Calm 10 Clear CLR 77 69     77%   78 30.1 30.08      
May 31 09:53 3 10 Mostly Clear FEW011 75 70     84%   76 30.1 30.09      
May 31 09:22 W 5 10 Mostly Clear FEW009 74 70     87%   75 30.11        
May 31 08:53 5 10 Mostly Cloudy BKN008 72 71     97%   73 30.11 30.1      
May 31 08:04 S 7 8 Mostly Cloudy BKN007 BKN011 71 71     100%   73 30.11        
May 31 07:57 S 5 6 Fog/Mist SCT005 BKN011 70 70     100%     30.11        
May 31 07:53 3 5 Fog/Mist BKN003 OVC012 70 70     100%     30.1 30.09      
Notice The following observation data may not be complete
May 31 07:38   4 Fog/Mist OVC003          %              
May 31 07:29 3 4 Fog/Mist OVC002 68 68     100%     30.1        
May 31 07:03 3 2.5 Fog/Mist OVC002 68 68     100%     30.09        
May 31 06:53 Calm 1.5 Fog/Mist OVC002 68 68     100%     30.09 30.08      
May 31 06:41 3 0.75 Fog/Mist VV002 68 68     100%     30.09        
May 31 06:33 Calm 0.5 Fog VV002 68 68     100%     30.09        
May 31 06:06 5 0.25 Fog OVC002 67 67     100%     30.07        
May 31 06:03 S 3 0.5 Fog OVC003 67 67     100%     30.07        
May 31 06:00 S 3 1.5 Fog/Mist OVC003 67 67     100%     30.07        
May 31 05:53 Calm 5 Fog/Mist OVC003 67 67     100%     30.07 30.06      
Notice The following observation data may not be complete
May 31 05:23   5 Fog/Mist OVC004          %              
May 31 04:53 Calm 4 Fog/Mist OVC005 65 65     100%     30.06 30.05      
May 31 04:51 Calm 2.5 Fog/Mist BKN005 64 64     100%     30.06        
May 31 04:40 Calm 1 Fog/Mist BKN007 64 64     100%     30.06        
May 31 04:20 Calm 0.5 Fog VV007 63 63     100%     30.05        
May 31 04:17 Calm 0.75 Fog/Mist CLR 63 63     100%     30.05        
May 31 04:05 Calm 2 Fog/Mist CLR 64 64     100%     30.05        
May 31 03:53 Calm 1 Fog/Mist CLR 64 64     100%     30.05 30.04      
Notice The following observation data may not be complete
May 31 03:31   3 Fog/Mist CLR          %              
May 31 03:19 Calm 1.25 Fog/Mist CLR 65 65     100%     30.06        
May 31 03:02 Calm 2.5 Fog/Mist CLR 65 65     100%     30.06        
May 31 02:53 Calm 3 Fog/Mist CLR 65 65     100%     30.06 30.04      
May 31 01:53 S 5 10 Clear CLR 66 66     100%     30.06 30.04      
May 31 00:53 S 3 10 Clear CLR 66 66     100%     30.05 30.04     0
May 30 23:53 S 3 10 Mostly Clear FEW100 66 66     100%     30.05 30.04      
May 30 22:53 S 6 10 Clear CLR 67 66     97%     30.05 30.04      
May 30 21:53 Calm 10 Clear CLR 66 66     100%     30.05 30.03   0  
May 30 20:53 S 8 10 Clear CLR 68 68     100%     30.04 30.03      
May 30 19:53 6 10 Mostly Cloudy FEW095 BKN120 67 67     100%     30.02 30.01 0    
Notice The following observation data may not be complete
May 30 19:26   3 Rain and Fog/Mist FEW050 SCT070 OVC090          %         0    
May 30 19:07 Calm 1.75 Light Rain and Fog/Mist SCT080 OVC095 68 68     100%     30.06   0    
May 30 18:53 N 5 10 Cloudy OVC085 69 69     100%     30.05 30.03 0   0
May 30 18:36 N 9 10 Cloudy FEW049 BKN075 OVC090 69 67     93%     30.05   0    
Notice The following observation data may not be complete
May 30 18:29 N 11 10 Cloudy FEW028 SCT070 OVC090   67      %     30.05   0    
Notice The following observation data may not be complete
May 30 18:17 NE 13 3 Thunderstorms and Rain and Fog/Mist SCT030 BKN055 OVC090   67      %     30.06   0    
Notice The following observation data may not be complete
May 30 18:12 NE 11 1 Thunderstorms and Rain and Fog/Mist SCT027 BKN045 OVC060   66      %     30.07   0    
May 30 18:01   0.5 Thunderstorms and Heavy Rain and Fog FEW016 SCT049 BKN060 69 65     87%     30.06   0    
May 30 17:58   1.25 Thunderstorms and Heavy Rain FEW024 FEW049 BKN060 70 65     84%     30.06   0    
May 30 17:53 14 7 Thunderstorms and Rain BKN055 75 62     64%   75 30.06 30.05 0    
May 30 17:49 6 10 Thunderstorms BKN060 77 61     57%   77 30.03        
May 30 16:53 S 7 10 Clear CLR 85 62     46%   86 30.01 30      
May 30 15:53 7 10 Mostly Clear FEW060 85 62     46%   86 30.02 30      
May 30 13:53 5 10 Clear CLR 85 61     45%   85 30.04 30.02      
May 30 12:53 5 10 Clear CLR 83 63     51%   84 30.07 30.05      
May 30 11:53 WSW 5 10 Clear CLR 82 64     55%   84 30.09 30.07      
May 30 10:53 3 10 Clear   81 64     56%   83 30.09 30.08      
May 30 09:53 3 10 Clear CLR 79 64     60%   79 30.1 30.09      
May 30 08:53 3 10 Clear CLR 75 65     71%   76 30.09 30.08      
May 30 07:53 6 10 Clear CLR 72 66     82%   73 30.08 30.07      
May 30 06:53 Calm 9 Clear   69 67     93%     30.07 30.06      
May 30 05:53 5 9 Clear CLR 67 67     100%     30.06 30.05      
May 30 04:53 5 10 Clear CLR 69 68     96%     30.04 30.03      
May 30 03:53 6 8 Clear CLR 67 67     100%     30.03 30.02      
Notice The following observation data may not be complete
May 30 03:11   6 Fog/Mist CLR          %              
May 30 03:04 S 6 2.5 Fog/Mist CLR 65 65     100%     30.02        
May 30 02:53 3 1.5 Fog/Mist CLR 65 65     100%     30.02 30.01      
May 30 02:44 Calm 2.5 Fog/Mist CLR 65 65     100%     30.02        
May 30 01:53 S 3 9 Clear CLR 67 67     100%     30.03 30.01      
May 30 00:53 3 10 Clear CLR 69 68     96%     30.03 30.01      
May 29 23:53 6 10 Clear CLR 70 68     93%     30.02 30.01      
May 29 22:53 6 10 Clear   70 67     90%     30.02 30.01      
May 29 21:53 6 10 Clear CLR 74 65     74%   74 30.01 29.99      
May 29 20:53 5 10 Clear CLR 73 64     73%   73 29.99 29.98      
May 29 19:53 WSW 3 10 Clear CLR 76 62     62%   76 29.98 29.97      
May 29 18:53 Calm 10 Clear CLR 79 66     65%   80 29.97 29.96      
May 29 17:53 Calm 10 Clear   82 59     46%   82 29.96 29.94      
May 29 16:53 3 10 Clear CLR 82 60     47%   82 29.96 29.95